Terug naar catalogus

STARLINK-31635

ActiefCommunicatieVLEO
NORAD 59511·PAYLOAD·🇺🇸 United States

Gelanceerd Apr 17, 2024 vanaf Cape Canaveral Space Force Station

Loading…

Volgende Passages (komende 24 uur)

TLE

VersSource: CelesTrak SupGP

Epoch: Sep 15, 2026, 03:00 UTC

1 59511C 24073A   26258.12548611  .00047298  00000+0  17130-2 0  2589
2 59511  43.0014 327.8186 0001649 261.3160  29.8211 15.27557406    15

Volg STARLINK-31635 in realtime met AllMySat

Download on the App Store